Location: Gadern
(49.5873°N, 8.8138°E)
Time: 07:36:40
(UTC+00:00)

ATLAS 3B R/B - Pass Details

Date: 19 May 2025
Orbit: 935 x 1258 km, 63.8° (Epoch: 22 June)

Event Time Altitude Azimuth Distance (km) Brightness Sun altitude
Exits shadow 21:30:08 23° 144° (SE) 2,293 3.8 -16.2°
Maximum altitude 21:32:57 29° 111° (ESE) 2,055 3.8 -16.4°
Drops below altitude 10° 21:39:19 10° 55° (NE) 3,214 5.3 -16.9°
Sets 21:42:33 0° 45° (NE) 4,206 6.1 -17.1°
